Location: Unspecified
(0.0000°N, 0.0000°E)
Time: 14:46:48
(UTC+00:00)

Diademe D-1C - Pass Details

Date: 07 June 2023
Orbit: 517 x 870 km, 39.9° (Epoch: 21 September)

Event Time Altitude Azimuth Distance (km) Brightness Sun altitude
Rises 04:52:43 0° 315° (NW) 3,250 9.5 -15.2°
Reaches altitude 10° 04:55:18 10° 317° (NW) 2,267 8.7 -14.6°
Maximum altitude 05:00:36 76° 42° (NE) 716 6.5 -13.4°
Drops below altitude 10° 05:05:19 10° 128° (SE) 2,027 9.1 -12.3°
Sets 05:07:32 0° 129° (SE) 2,880 9.9 -11.8°
